LA8QT Lodingen NO current weather conditions

sailwx.info

Wind from 187 at 1 knots

Air temperature 12.8° C
Dewpoint 9.2° C

Last reported at 2020-Aug-09 18:46 UTC.
Time now 2020-Aug-09 19:24 UTC

Location: N 68°28' E 016°04'.
View on Google Maps.

See reports from other nearby stations

  
Tides and Currents Weather Stations Pressure Air Temp Water Temp Dewpoint Dewpoint Depression Visibility Wind Speed Wind Dir Waves Ship Positions
date/time (UTC)wind fromknots sea level pressurealtimeterstation pressurevisibilityair tempwater tempwave heightnotes
2020-Aug-09 19:01 308 6 12.8
2020-Aug-09 18:46 187 1 12.8
2020-Aug-09 18:31 221 2 12.8
2020-Aug-09 18:16 208 3 12.8
2020-Aug-09 18:01 273 5 12.8
2020-Aug-09 17:46 256 3 12.8
2020-Aug-09 17:32 244 4 12.8
2020-Aug-09 17:18 219 6 12.8
2020-Aug-09 17:02 146 5 13.3
2020-Aug-09 16:47 183 5 13.3
2020-Aug-09 16:32 178 3 12.8
2020-Aug-09 16:16 218 4 12.8
2020-Aug-09 16:01 215 4 12.8
2020-Aug-09 15:46 238 3 12.2
2020-Aug-09 15:31 237 4 12.8
2020-Aug-09 15:15 201 1 13.3
2020-Aug-09 15:02 192 4 13.3
2020-Aug-09 14:46 183 4 13.3
2020-Aug-09 14:31 239 6 12.8
2020-Aug-09 14:17 241 6 12.2
2020-Aug-09 14:01 227 4 12.2
2020-Aug-09 13:46 218 8 12.2
2020-Aug-09 13:30 250 9 12.8
2020-Aug-09 13:15 223 11 12.8
2020-Aug-09 13:01 246 10 13.3
2020-Aug-09 12:48 227 8 13.3
2020-Aug-09 12:30 241 9 13.3
2020-Aug-09 12:15 222 9 13.3
2020-Aug-09 12:00 246 9 14.4
2020-Aug-09 11:46 204 12 14.4
2020-Aug-09 11:30 200 9 15.0
2020-Aug-09 11:15 229 8 13.9
2020-Aug-09 11:01 215 8 13.9
2020-Aug-09 10:45 215 8 14.4
2020-Aug-09 10:30 195 6 14.4
2020-Aug-09 10:16 195 7 14.4
2020-Aug-09 10:00 185 6 15.0
2020-Aug-09 09:45 204 7 15.0
2020-Aug-09 09:31 221 7 14.4
2020-Aug-09 09:15 250 8 13.9
2020-Aug-09 09:01 219 7 14.4
2020-Aug-09 08:46 200 7 14.4
2020-Aug-09 08:31 246 6 13.9
2020-Aug-09 08:16 219 7 13.9
2020-Aug-09 08:00 218 8 13.3
2020-Aug-09 07:46 227 8 13.3
2020-Aug-09 07:31 214 10 13.3
2020-Aug-09 07:15 201 6 13.3
2020-Aug-09 07:00 220 8 12.8
2020-Aug-09 06:46 242 8 13.3
2020-Aug-09 06:30 200 5 13.3
2020-Aug-09 06:15 238 6 13.3
2020-Aug-09 06:00 227 7 13.9
2020-Aug-09 05:46 251 6 13.9
2020-Aug-09 05:30 220 4 13.3
2020-Aug-09 05:15 230 4 13.3
2020-Aug-09 05:01 225 5 12.8
2020-Aug-09 04:46 229 6 13.3
2020-Aug-09 04:31 199 6 13.3
2020-Aug-09 04:15 210 7 13.3
2020-Aug-09 04:01 238 6 13.3
2020-Aug-09 03:45 237 2 12.8
2020-Aug-09 03:30 241 4 12.8
2020-Aug-09 03:15 276 2 12.8
2020-Aug-09 03:00 244 5 13.3
2020-Aug-09 02:45 229 6 13.3
2020-Aug-09 02:30 234 9 13.3
2020-Aug-09 02:15 242 8 13.3
2020-Aug-09 02:00 212 8 13.3
2020-Aug-09 01:45 229 8 13.3
2020-Aug-09 01:30 234 8 13.3
2020-Aug-09 01:15 189 12 13.9
2020-Aug-09 01:00 237 12 13.9
2020-Aug-09 00:45 239 9 13.9
2020-Aug-09 00:17 266 13 13.9
2020-Aug-09 00:02 229 9 14.4
2020-Aug-08 23:47 223 6 14.4
2020-Aug-08 23:32 212 7 15.0
2020-Aug-08 23:19 219 8 15.0
2020-Aug-08 23:01 216 9 15.0
2020-Aug-08 22:46 221 10 15.0
2020-Aug-08 22:31 200 10 15.0
2020-Aug-08 22:16 218 9 15.6
2020-Aug-08 22:01 204 8 15.6
2020-Aug-08 21:45 204 11 15.6
2020-Aug-08 21:31 219 12 15.6
2020-Aug-08 21:15 216 12 15.6
2020-Aug-08 21:01 257 13 15.6
2020-Aug-08 20:45 241 12 16.1
2020-Aug-08 20:31 238 6 16.1
2020-Aug-08 20:15 218 4 16.1
2020-Aug-08 20:00 249 6 16.1
2020-Aug-08 19:45 245 5 16.1
2020-Aug-08 19:31 203 2 16.7
2020-Aug-08 19:15 226 3 16.7
2020-Aug-08 19:01 211 3 16.7
2020-Aug-08 18:45 216 2 16.7
2020-Aug-08 18:31 196 4 16.7
2020-Aug-08 18:16 166 4 17.2
2020-Aug-08 18:01 244 6 16.7
2020-Aug-08 17:45 194 8 17.8
2020-Aug-08 17:31 177 4 19.4
2020-Aug-08 17:16 252 10 20.6
2020-Aug-08 17:00 290 13 20.6
2020-Aug-08 16:46 257 13 21.1
2020-Aug-08 16:30 023 0 22.2
2020-Aug-08 16:16 021 2 22.8
2020-Aug-08 16:01 034 4 22.2
2020-Aug-08 15:45 040 4 22.2
2020-Aug-08 15:31 037 3 21.7
2020-Aug-08 15:15 052 3 22.8
2020-Aug-08 15:01 042 5 22.2
2020-Aug-08 14:45 036 6 22.2
2020-Aug-08 14:30 038 4 22.2
2020-Aug-08 14:15 035 6 21.7
2020-Aug-08 14:00 042 5 22.2
2020-Aug-08 13:45 047 6 22.8
2020-Aug-08 13:15 023 6 21.7
2020-Aug-08 13:00 036 6 22.8
2020-Aug-08 12:45 041 6 22.8
2020-Aug-08 12:30 022 8 22.2
2020-Aug-08 12:15 041 7 21.1
2020-Aug-08 12:00 036 8 21.1
2020-Aug-08 11:45 033 8 21.1
2020-Aug-08 11:30 031 10 20.6
2020-Aug-08 11:15 036 9 19.4
2020-Aug-08 11:00 041 6 19.4
2020-Aug-08 10:45 025 7 20.6
2020-Aug-08 10:30 045 8 20.6
2020-Aug-08 10:15 038 8 20.0
2020-Aug-08 10:00 026 9 18.9
2020-Aug-08 09:45 036 8 20.0
2020-Aug-08 09:30 033 9 18.9
2020-Aug-08 09:15 036 6 19.4
2020-Aug-08 09:01 027 8 19.4
2020-Aug-08 08:46 018 9 20.0
2020-Aug-08 08:32 004 8 18.9
2020-Aug-08 08:16 034 9 18.9
2020-Aug-08 08:01 037 9 18.3
2020-Aug-08 07:46 025 9 17.8
2020-Aug-08 07:32 040 10 17.2
2020-Aug-08 07:16 027 12 17.2
2020-Aug-08 07:01 030 11 16.1
2020-Aug-08 06:46 050 11 15.6
2020-Aug-08 06:31 034 11 16.1
2020-Aug-08 06:15 030 12 15.6
2020-Aug-08 06:01 042 11 15.0
2020-Aug-08 05:45 052 10 15.6
2020-Aug-08 05:31 040 12 16.1
2020-Aug-08 05:15 042 9 15.6
2020-Aug-08 05:01 021 8 16.1
2020-Aug-08 04:46 002 6 15.6
2020-Aug-08 04:31 029 6 15.6
2020-Aug-08 04:16 027 5 15.0
2020-Aug-08 04:01 010 4 14.4
2020-Aug-08 03:46 356 6 13.9
2020-Aug-08 03:31 016 8 13.9
2020-Aug-08 03:16 038 9 14.4
2020-Aug-08 03:01 037 5 15.6
2020-Aug-08 02:45 017 9 15.6
2020-Aug-08 02:30 035 9 15.0
2020-Aug-08 02:15 042 9 14.4
2020-Aug-08 02:00 013 8 15.0
2020-Aug-08 01:46 033 5 13.3
2020-Aug-08 01:30 009 6 13.3
2020-Aug-08 01:15 018 6 13.9
2020-Aug-08 01:00 036 2 13.9
2020-Aug-08 00:45 031 3 13.9
2020-Aug-08 00:30 010 6 13.9
2020-Aug-08 00:15 013 6 13.9
2020-Aug-08 00:00 009 4 14.4
2020-Aug-07 23:45 019 5 13.9
2020-Aug-07 23:30 038 5 14.4
2020-Aug-07 23:15 006 2 15.0
2020-Aug-07 23:01 015 6 13.9
2020-Aug-07 22:45 033 7 13.9
2020-Aug-07 22:30 043 4 14.4
2020-Aug-07 22:15 022 4 14.4
2020-Aug-07 22:00 033 7 13.9
2020-Aug-07 21:45 042 8 13.9
2020-Aug-07 21:30 024 5 13.9
2020-Aug-07 21:15 044 3 13.9
2020-Aug-07 21:00 034 4 13.9
2020-Aug-07 20:45 034 6 14.4
2020-Aug-07 20:30 040 4 14.4
2020-Aug-07 20:15 021 5 14.4
2020-Aug-07 20:01 019 1 15.0
2020-Aug-07 19:47 006 1 15.0
2020-Aug-07 19:32 355 2 15.6
2020-Aug-07 19:17 010 4 15.6
2020-Aug-07 19:01 002 4 15.6